Bowling Green, Kentucky, United States (42101)
Lat: 36.99N, Lon: 86.44W
Wx Zone: KYZ071
Local Info
Past Weather Observations for Thursday, February 26, 2015

NOTE: This archive is for the closest National Weather Service station to Bowling Green. Information may differ from the station used for current weather conditions.

Click here for Long-term Archive

Time Weather Temperature Dewpoint Humidity Pressure Winds Precip Visibility
23:55
Overcast
23°F / -5°C 14°F / -10°C 68% 30.36 in
(1028 mb)
N 9.2 mph
(N 15 kph)
- 10SM
23:35
Overcast
23°F / -5°C 16°F / -9°C 74% 30.36 in
(1028 mb)
N 9.2 mph
(N 15 kph)
- 10SM
23:15
Overcast
23°F / -5°C 16°F / -9°C 74% 30.36 in
(1028 mb)
N 11.5 mph
(N 19 kph)
- 10SM
22:55
Overcast
25°F / -4°C 16°F / -9°C 69% 30.33 in
(1027 mb)
N 9.2 mph
(N 15 kph)
- 10SM
22:35
Overcast
25°F / -4°C 18°F / -8°C 74% 30.33 in
(1027 mb)
N 11.5 mph
(N 19 kph)
- 10SM
22:15
Overcast
Light Snow
25°F / -4°C 19°F / -7°C 80% 30.33 in
(1027 mb)
NNE 5.8 mph
(NNE 9 kph)
- 7SM
21:55
Overcast
Light Snow
25°F / -4°C 19°F / -7°C 80% 30.33 in
(1027 mb)
N 9.2 mph
(N 15 kph)
- 7SM
21:35
Overcast
Light Snow
25°F / -4°C 19°F / -7°C 80% 30.33 in
(1027 mb)
N 11.5 mph
(N 19 kph)
- 5SM
21:15
Overcast
Light Snow
27°F / -3°C 21°F / -6°C 80% 30.3 in
(1026 mb)
N 10.4 mph
(N 17 kph)
- 5SM
20:55
Overcast
Light Snow
27°F / -3°C 23°F / -5°C 86% 30.3 in
(1026 mb)
NNW 8.1 mph
(NNW 13 kph)
- 7SM
20:35
Overcast
Light Snow
27°F / -3°C 23°F / -5°C 86% 30.3 in
(1026 mb)
NNW 6.9 mph
(NNW 11 kph)
- 7SM
20:15
Overcast
Light Snow
27°F / -3°C 23°F / -5°C 86% 30.27 in
(1025 mb)
NW 8.1 mph
(NW 13 kph)
- 10SM
19:55
Overcast
Light Snow
27°F / -3°C 23°F / -5°C 86% 30.24 in
(1024 mb)
NNW 10.4 mph
(NNW 17 kph)
- 7SM
19:35
Overcast
Light Snow
28°F / -2°C 23°F / -5°C 80% 30.24 in
(1024 mb)
NW 6.9 mph
(NW 11 kph)
- 7SM
19:15
Overcast
Light Snow
28°F / -2°C 23°F / -5°C 80% 30.24 in
(1024 mb)
NNW 10.4 mph
(NNW 17 kph)
- 7SM
18:55
Overcast
Light Snow
28°F / -2°C 23°F / -5°C 80% 30.21 in
(1023 mb)
NNW 10.4 mph
(NNW 17 kph)
- 7SM
18:35
Overcast
Light Snow
30°F / -1°C 23°F / -5°C 75% 30.21 in
(1023 mb)
NNW 13.8 mph
(NNW 22 kph)
- 10SM
18:15
Overcast
Light Snow
30°F / -1°C 23°F / -5°C 75% 30.18 in
(1022 mb)
NNW 10.4 mph
(NNW 17 kph)
- 10SM
17:55
Overcast
32°F / 0°C 23°F / -5°C 69% 30.18 in
(1022 mb)
NNW 10.4 mph
(NNW 17 kph)
- 10SM
17:35
Overcast
32°F / 0°C 21°F / -6°C 64% 30.15 in
(1021 mb)
NW 8.1 mph
(NW 13 kph)
- 10SM
17:15
Overcast
34°F / 1°C 21°F / -6°C 60% 30.15 in
(1021 mb)
NW 10.4 mph
(NW 17 kph)
- 10SM
16:55
Overcast
34°F / 1°C 19°F / -7°C 56% 30.12 in
(1020 mb)
NW 8.1 mph
(NW 13 kph)
- 10SM
16:35
Overcast
36°F / 2°C 19°F / -7°C 52% 30.12 in
(1020 mb)
NW 9.2 mph
(NW 15 kph)
- 10SM
16:15
Overcast
36°F / 2°C 21°F / -6°C 56% 30.12 in
(1020 mb)
NW 6.9 mph
(NW 11 kph)
- 10SM
15:55
Overcast
36°F / 2°C 21°F / -6°C 56% 30.09 in
(1019 mb)
NNW 8.1 mph
(NNW 13 kph)
- 10SM
15:35
Overcast
37°F / 3°C 21°F / -6°C 52% 30.09 in
(1019 mb)
N 9.2 mph
(N 15 kph)
- 10SM
15:15
Overcast
37°F / 3°C 21°F / -6°C 52% 30.09 in
(1019 mb)
NW 8.1 mph
(NW 13 kph)
- 10SM
14:55
Overcast
37°F / 3°C 21°F / -6°C 52% 30.06 in
(1018 mb)
NNW 6.9 mph
(NNW 11 kph)
- 10SM
14:35
Overcast
39°F / 4°C 19°F / -7°C 45% 30.06 in
(1018 mb)
NW 4.6 mph
(NW 7 kph)
- 10SM
14:15
Overcast
39°F / 4°C 19°F / -7°C 45% 30.04 in
(1017 mb)
NNW 9.2 mph
(NNW 15 kph)
- 10SM
13:55
Mostly Cloudy
39°F / 4°C 19°F / -7°C 45% 30.04 in
(1017 mb)
N 6.9 mph
(N 11 kph)
- 10SM
13:35
Partly Cloudy
41°F / 5°C 19°F / -7°C 42% 30.04 in
(1017 mb)
Calm - 10SM
13:15
Partly Cloudy
39°F / 4°C 19°F / -7°C 45% 30.04 in
(1017 mb)
N 5.8 mph
(N 9 kph)
- 10SM
12:55
Clear
41°F / 5°C 21°F / -6°C 45% 30.04 in
(1017 mb)
NE 3.5 mph
(NE 6 kph)
- 10SM
12:35
Clear
39°F / 4°C 21°F / -6°C 48% 30.01 in
(1016 mb)
NE 3.5 mph
(NE 6 kph)
- 10SM
12:15
Clear
39°F / 4°C 19°F / -7°C 45% 30.04 in
(1017 mb)
N 5.8 mph
(N 9 kph)
- 10SM
11:55
Clear
39°F / 4°C 21°F / -6°C 48% 30.04 in
(1017 mb)
NNE 3.5 mph
(NNE 6 kph)
- 10SM
11:35
Clear
39°F / 4°C 21°F / -6°C 48% 30.04 in
(1017 mb)
N 5.8 mph
(N 9 kph)
- 10SM
11:15
Partly Cloudy
39°F / 4°C 21°F / -6°C 48% 30.04 in
(1017 mb)
N 3.5 mph
(N 6 kph)
- 10SM
10:55
Partly Cloudy
37°F / 3°C 21°F / -6°C 52% 30.04 in
(1017 mb)
Calm - 10SM
10:35
Partly Cloudy
36°F / 2°C 21°F / -6°C 56% 30.04 in
(1017 mb)
Calm - 10SM
10:15
Partly Cloudy
36°F / 2°C 21°F / -6°C 56% 30.01 in
(1016 mb)
Calm - 10SM
09:55
Clear
34°F / 1°C 21°F / -6°C 60% 30.01 in
(1016 mb)
Calm - 10SM
09:35
Clear
34°F / 1°C 21°F / -6°C 60% 30.01 in
(1016 mb)
Calm - 10SM
09:15
Clear
34°F / 1°C 21°F / -6°C 60% 30.01 in
(1016 mb)
Calm - 10SM
08:55
Clear
32°F / 0°C 21°F / -6°C 64% 30.01 in
(1016 mb)
N 3.5 mph
(N 6 kph)
- 10SM
08:35
Clear
32°F / 0°C 21°F / -6°C 64% 30.01 in
(1016 mb)
N 5.8 mph
(N 9 kph)
- 10SM
08:15
Clear
30°F / -1°C 21°F / -6°C 69% 29.98 in
(1015 mb)
N 5.8 mph
(N 9 kph)
- 10SM
07:55
Clear
30°F / -1°C 21°F / -6°C 69% 29.98 in
(1015 mb)
N 6.9 mph
(N 11 kph)
- 10SM
07:35
Clear
28°F / -2°C 21°F / -6°C 74% 29.95 in
(1014 mb)
N 6.9 mph
(N 11 kph)
- 10SM
07:15
Clear
28°F / -2°C 23°F / -5°C 80% 29.95 in
(1014 mb)
Calm - 10SM
06:55
Clear
23°F / -5°C 21°F / -6°C 93% 29.95 in
(1014 mb)
N 4.6 mph
(N 7 kph)
- 7SM
06:35
Clear
Fog And Mist
25°F / -4°C 25°F / -4°C 100% 29.92 in
(1013 mb)
Calm - 5SM
06:15
Clear
Fog And Mist
23°F / -5°C 23°F / -5°C 100% 29.92 in
(1013 mb)
Calm - 5SM
05:55
Clear
Fog And Mist
25°F / -4°C 25°F / -4°C 100% 29.92 in
(1013 mb)
Calm - 5SM
05:35
Clear
25°F / -4°C 25°F / -4°C 100% 29.89 in
(1012 mb)
Calm - 7SM
05:15
Clear
27°F / -3°C 23°F / -5°C 86% 29.89 in
(1012 mb)
Calm - 7SM
04:55
Clear
28°F / -2°C 25°F / -4°C 86% 29.89 in
(1012 mb)
NW 3.5 mph
(NW 6 kph)
- 10SM
04:35
Mostly Cloudy
28°F / -2°C 25°F / -4°C 86% 29.89 in
(1012 mb)
Calm - 10SM
04:15
Overcast
28°F / -2°C 25°F / -4°C 86% 29.89 in
(1012 mb)
Calm - 10SM
03:55
Overcast
30°F / -1°C 27°F / -3°C 86% 29.86 in
(1011 mb)
Calm - 10SM
03:35
Overcast
30°F / -1°C 27°F / -3°C 86% 29.86 in
(1011 mb)
Calm - 10SM
03:15
Overcast
30°F / -1°C 27°F / -3°C 86% 29.83 in
(1010 mb)
Calm - 10SM
02:55
Overcast
30°F / -1°C 27°F / -3°C 86% 29.83 in
(1010 mb)
Calm - 10SM
00:35
Overcast
30°F / -1°C 27°F / -3°C 86% 29.83 in
(1010 mb)
E 5.8 mph
(E 9 kph)
- 10SM
00:15
Overcast
32°F / 0°C 27°F / -3°C 80% 29.83 in
(1010 mb)
E 6.9 mph
(E 11 kph)
- 10SM
Time Weather Temperature Dewpoint Humidity Pressure Winds Precip Visibility


Weather for websites

WeatherForYou.com, LLC is not responsible for any damages or problems caused by this service. Current weather conditions are obtained from the closest station including government and personal stations which may have varying degrees of accuracy. Weather forecasts are derived from the NOAA NDFD. Like all things, this site belongs to Jesus Christ... He just trusts me to maintain it. If you have any questions or comments email webmaster@weatherforyou.com

Copyright © 2015, WeatherForYou.com LLC. All rights reserved.